Lexington Weather

Lexington, Massachusetts, USA

23°F
1/23/2020 8:14am 
  • Lexington Conditions: Partly cloudy
  • Temperature: 23.4°F / -4.8°CWarmer 2.0°F than last hour.
  • Dew Point: 17.8°FIncreased 1.1°Fsince last hour.
  • Relative Humidity: 79%Decreased 3.0% since last hour.
  • Wind: Calm, 10-min avg: Calm, gust: 1 mph
  • Barometer: 30.33 in Steady
  • Visibility: 10 miles
  • Snow Today: 0.0 in
  •   

Regional Weather Roundup
for Boston / Norton, MA

        
000
ASUS41 KBOX 221700
RWRBOX

REGIONAL WEATHER ROUNDUP
NATIONAL WEATHER SERVICE BOSTON/NORTON MA
1200 PM EST WED JAN 22 2020

NOTE:  "FAIR" INDICATES FEW OR NO CLOUDS BELOW 12,000 FEET WITH NO 
SIGNIFICANT WEATHER AND/OR OBSTRUCTIONS TO VISIBILITY.

MAZALL-221800-
EASTERN MASSACHUSETTS
  
CITY           SKY/WX    TMP DP  RH WIND       PRES   REMARKS
BOSTON         FAIR      36  15  42 VRB5      30.42F                  
BEVERLY        FAIR      32  16  51 VRB7      30.40F WCI  26          
LAWRENCE       FAIR      30  15  53 SW6       30.42F WCI  24          
BEDFORD        FAIR      32  14  47 SW3       30.40F                  
BLUE HILL        N/A     28  14  55 VRB3      30.37F                  
NORWOOD        FAIR      34  15  46 VRB3      30.42F                  
MARSHFIELD     NOT AVBL                                               
PLYMOUTH       FAIR      32  13  45 W6        30.42F WCI  26          
TAUNTON        FAIR      33  14  45 CALM      30.42F                  
NEW BEDFORD    FAIR      33  12  41 VRB3      30.42F                  
$$

MAZALL-221800-
CAPE COD AND THE ISLANDS
  
CITY           SKY/WX    TMP DP  RH WIND       PRES   REMARKS
FALMOUTH       SUNNY     34   7  32 W6        30.41F WCI  29          
HYANNIS        FAIR      33   8  35 S7        30.40F WCI  27          
CHATHAM        FAIR      33  18  53 S7        30.42F WCI  27          
PROVINCETOWN   FAIR      32  16  51 W7        30.43F WCI  26          
NANTUCKET      FAIR      33  14  45 SW9       30.42F WCI  25          
MARTHAS VNYRD  FAIR      35  12  38 W6        30.42F WCI  30          
$$
 
MAZALL-221800-
CENTRAL AND WESTERN MASSACHUSETTS
  
CITY           SKY/WX    TMP DP  RH WIND       PRES   REMARKS
WORCESTER      FAIR      27  13  55 SW9G16    30.36F WCI  18          
FITCHBURG      FAIR      33  15  47 NW7       30.40F WCI  27          
ORANGE         FAIR      26  10  50 CALM      30.41F                  
SPRINGFIELD    MOSUNNY   25  11  54 CALM      30.42F                  
WESTFIELD      NOT AVBL                                               
NORTH ADAMS    PTSUNNY   29  17  61 NW6       30.40F WCI  23          
PITTSFIELD     PTSUNNY   26  17  68 NW8       30.36F WCI  18          
$$
 
RIZALL-221800-
RHODE ISLAND
  
CITY           SKY/WX    TMP DP  RH WIND       PRES   REMARKS
PROVIDENCE     FAIR      33  15  47 W3        30.43F                  
NEWPORT        FAIR      31  14  49 SW5       30.43F WCI  26          
BLOCK ISLAND   FAIR      31  18  58 W8        30.44F WCI  23          
SMITHFIELD     FAIR      31  16  54 W5        30.41F WCI  26          
WESTERLY       FAIR      35  14  42 N6        30.44F WCI  30          
$$
 
CTZALL-221800-
CONNECTICUT
  
CITY           SKY/WX    TMP DP  RH WIND       PRES   REMARKS
BRADLEY INTL   FAIR      28  15  58 SE8       30.43F WCI  20          
HARTFORD       FAIR      30  16  56 CALM      30.45F                  
BRIDGEPORT     FAIR      33  16  49 VRB5      30.46F WCI  29          
DANBURY        FAIR      31  14  49 N6        30.44F WCI  25          
GROTON         FAIR      33  18  53 S9        30.44F WCI  25          
NEW HAVEN      FAIR      34  17  50 NW7       30.44F WCI  28          
CHESTER        NOT AVBL                                               
MERIDEN        FAIR      31  15  52 W9        30.45F WCI  23          
WILLIMANTIC    FAIR      30  16  56 W7        30.44F WCI  23          
OXFORD         FAIR      28  15  58 W7        30.42F WCI  21          
$$

MEZ002-015-021-024-NHZ003-005-008-011-012-014-VTZ005-008-221800-
NORTHERN NEW ENGLAND
  
CITY           SKY/WX    TMP DP  RH WIND       PRES   REMARKS
PORTLAND ME    FAIR      31  14  49 CALM      30.40F                  
BANGOR ME      PTSUNNY   28  14  55 SW6       30.39F WCI  22          
CONCORD NH     FAIR      29  12  49 CALM      30.39F                  
MANCHESTER NH  FAIR      30  13  49 CALM      30.38F                  
NASHUA NH      FAIR      31  16  54 NE3       30.41F                  
PORTSMOUTH NH  SUNNY     29  11  46 SW5       30.39F WCI  24          
JAFFREY NH     FAIR      28  13  53 W7        30.36F WCI  21          
KEENE NH       FLURRIES  30  13  49 CALM      30.41F                  
BURLINGTON VT  PTSUNNY   31  19  61 S18       30.33F WCI  19          
MT. WASHINGTON MOSUNNY   16   5  62 NW38        N/A  WCI  -6          
$$

NYZ052-076-221800-
EASTERN NEW YORK
  
CITY           SKY/WX    TMP DP  RH WIND       PRES   REMARKS
ALBANY         PTSUNNY   28  17  63 S8        30.44F WCI  20          
NEW YORK CITY  FAIR      33  16  49 NE5       30.46F WCI  29          
$$
 
ANZALL-221800-
MARINE OBSERVATIONS
  
STATION/POSITION TIME  TEMP    WIND        PRES    VSBY  WAVE
                       AIR SEA DIR/SP/G                  HT/PER
                 (UTC) (F)     (DEG/KT/KT) (MB)    (MI)  (FT/S)
BOSTON BUOY      1550   30 42  260/  8/ 10 1030.2          1/10
BUZZARDS BAY     1600   29     330/  3/  3 1031.5F
NANTUCKET SOUND  NOT AVBL
MASS BAY-STELLWA 1604   29 41  300/  8/ 12 1028.7F  1 7/8  2/11
ISLE OF SHOALS   1600   26     290/  7/  9 1029.9F
S OF BLOCK IS    1630      45                N/A           1/ 9
$$

......................KEY.........................
  SKY/WX - SKY CONDITION/PRESENT WEATHER
  TMP    - TEMPERATURE IN FAHRENHEIT
  DWPT   - DEWPOINT IN FAHRENHEIT
  RH     - RELATIVE HUMIDITY IN PERCENT
  WIND   - DIRECTION AND SPEED IN MPH
  PRES   - MEAN SEA LEVEL PRESSURE IN INCHES OF HG
  WCI    - WIND CHILL INDEX
  VSB    - VISIBILITY IN MILES
  HX     - HEAT INDEX
  TC     - TEMPERATURE IN CELSIUS
  VRB    - VARIABLE WIND DIRECTION
  N/A    - NOT AVAILABLE
  
      

Other recent Regional Weather Roundups

Thu Jan 23, 8:00am

Thu Jan 23, 7:10am

Thu Jan 23, 7:01am

Thu Jan 23, 6:10am

Thu Jan 23, 6:00am

Thu Jan 23, 5:10am

Thu Jan 23, 5:00am

Thu Jan 23, 4:10am

Thu Jan 23, 4:01am

Thu Jan 23, 3:10am

Thu Jan 23, 3:00am

Thu Jan 23, 2:10am

Thu Jan 23, 2:00am

Thu Jan 23, 1:10am

Thu Jan 23, 1:00am

Thu Jan 23, 12:10am

Thu Jan 23, 12:00am

Wed Jan 22, 11:10pm

Wed Jan 22, 11:01pm

Wed Jan 22, 10:10pm

Wed Jan 22, 10:00pm

Wed Jan 22, 9:10pm

Wed Jan 22, 9:00pm

Wed Jan 22, 8:10pm

Wed Jan 22, 8:01pm

Wed Jan 22, 7:10pm

Wed Jan 22, 7:00pm

Wed Jan 22, 6:10pm

Wed Jan 22, 6:01pm

Wed Jan 22, 5:10pm

Wed Jan 22, 5:00pm

Wed Jan 22, 4:10pm

Wed Jan 22, 4:00pm

Wed Jan 22, 3:10pm

Wed Jan 22, 3:00pm

Wed Jan 22, 2:10pm

Wed Jan 22, 2:00pm

Wed Jan 22, 1:10pm

Wed Jan 22, 1:00pm

Wed Jan 22, 12:10pm

Wed Jan 22, 11:10am

Wed Jan 22, 11:00am

Wed Jan 22, 10:10am

Wed Jan 22, 10:01am

Wed Jan 22, 9:10am

Wed Jan 22, 9:00am

Wed Jan 22, 8:10am

Wed Jan 22, 8:00am

Wed Jan 22, 7:10am

Wed Jan 22, 7:00am

Wed Jan 22, 6:10am

Wed Jan 22, 6:00am

Wed Jan 22, 5:10am

Wed Jan 22, 5:00am

Wed Jan 22, 4:10am

Wed Jan 22, 4:00am

Wed Jan 22, 3:10am

Wed Jan 22, 3:01am

Wed Jan 22, 2:10am

Wed Jan 22, 2:00am

Wed Jan 22, 1:10am

Wed Jan 22, 1:00am

Wed Jan 22, 12:10am

Wed Jan 22, 12:00am

Tue Jan 21, 11:10pm

Tue Jan 21, 11:00pm

Tue Jan 21, 10:10pm

Tue Jan 21, 10:00pm

Tue Jan 21, 9:10pm

Tue Jan 21, 9:01pm

Tue Jan 21, 8:10pm

Tue Jan 21, 8:00pm

Tue Jan 21, 7:10pm

Tue Jan 21, 7:00pm

Tue Jan 21, 6:10pm

Tue Jan 21, 6:01pm

Tue Jan 21, 5:10pm

Tue Jan 21, 5:00pm

Tue Jan 21, 4:10pm

Tue Jan 21, 4:00pm

Tue Jan 21, 3:10pm

Tue Jan 21, 3:01pm

Tue Jan 21, 2:10pm

Tue Jan 21, 2:00pm

Tue Jan 21, 1:10pm

Tue Jan 21, 1:00pm

Tue Jan 21, 12:10pm

Tue Jan 21, 12:00pm

Tue Jan 21, 11:10am

Tue Jan 21, 11:00am

Tue Jan 21, 10:10am

Tue Jan 21, 10:00am

Tue Jan 21, 9:10am

Tue Jan 21, 9:00am

Tue Jan 21, 8:10am

Tue Jan 21, 8:00am

Tue Jan 21, 7:10am

Tue Jan 21, 7:00am

Tue Jan 21, 6:10am

Tue Jan 21, 6:00am

Tue Jan 21, 5:10am

Tue Jan 21, 5:00am

Tue Jan 21, 4:10am

Tue Jan 21, 4:00am

Tue Jan 21, 3:10am

Tue Jan 21, 3:00am

Tue Jan 21, 2:10am

Tue Jan 21, 2:01am

Tue Jan 21, 1:10am

Tue Jan 21, 1:00am

Tue Jan 21, 12:10am

Tue Jan 21, 12:00am

Mon Jan 20, 11:10pm

Mon Jan 20, 11:00pm

Mon Jan 20, 10:10pm

Mon Jan 20, 10:00pm

Mon Jan 20, 9:10pm

Mon Jan 20, 9:00pm

Mon Jan 20, 8:10pm

Mon Jan 20, 8:00pm

Mon Jan 20, 7:10pm

Mon Jan 20, 7:00pm

Mon Jan 20, 6:10pm

Mon Jan 20, 6:00pm

Mon Jan 20, 5:10pm

Mon Jan 20, 5:00pm

Mon Jan 20, 4:10pm

Mon Jan 20, 4:01pm

Mon Jan 20, 3:10pm

Mon Jan 20, 3:00pm

Mon Jan 20, 2:10pm

Mon Jan 20, 2:00pm

Mon Jan 20, 1:10pm

Mon Jan 20, 1:00pm

Mon Jan 20, 12:10pm

Mon Jan 20, 12:00pm

Mon Jan 20, 11:10am

Mon Jan 20, 11:00am

Mon Jan 20, 10:10am

Mon Jan 20, 10:00am

Mon Jan 20, 9:10am

Mon Jan 20, 9:00am

Meta data:

ID: c216e5a7-0682-46fb-a3b9-914c3a57450c
Link: https://api.weather.gov/products/c216e5a7-0682-46fb-a3b9-914c3a57450c